DW6334 Weather Reports


Display with metric or nautical units.
time (UTC)temp
F
wind
direction
speed
MPH
gust
MPH
rain 1hr
in
rain 24hr
in
rain mn
in
humidity
%
barometer
mb
20210926015341 67 28 0.0 0.0 0.00 0.00 0.00 86 1019.6
20210926014838 67 28 0.0 0.0 0.00 0.00 0.00 86 1019.5
20210926014339 67 28 0.0 0.0 0.00 0.00 0.00 86 1019.4
20210926013840 67 28 0.0 0.0 0.00 0.00 0.00 85 1019.4
20210926013337 67 28 0.0 0.0 0.00 0.00 0.00 85 1019.4
20210926012837 67 28 0.0 0.0 0.00 0.00 0.00 84 1019.4
20210926012337 67 28 0.0 0.0 0.00 0.00 0.00 84 1019.3
20210926011837 67 28 0.0 0.0 0.00 0.00 0.00 83 1019.2
20210926010848 68 28 0.0 0.0 0.00 0.00 0.00 83 1019.1
20210926010345 68 28 0.0 0.0 0.00 0.00 0.00 83 1019.0
20210926005845 68 28 0.0 0.0 0.00 0.00 0.00 83 1018.9
20210926005345 68 28 0.0 0.0 0.00 0.00 0.00 82 1018.9
20210926004843 69 28 0.0 0.0 0.00 0.00 0.00 81 1018.9
20210926004338 69 28 0.0 0.0 0.00 0.00 0.00 81 1018.8
20210926003837 69 28 0.0 0.0 0.00 0.00 0.00 81 1018.7
20210926003333 70 28 0.0 0.0 0.00 0.00 0.00 80 1018.7
20210926002830 70 28 0.0 0.0 0.00 0.00 0.00 80 1018.7
20210926002349 70 28 0.0 0.0 0.00 0.00 0.00 80 1018.7
20210926001847 71 28 0.0 0.0 0.00 0.00 0.00 79 1018.7
20210926001343 71 28 0.0 0.0 0.00 0.00 0.00 78 1018.6
20210926000840 72 28 0.0 0.0 0.00 0.00 0.00 77 1018.6
20210926000334 72 28 0.0 0.0 0.00 0.00 0.00 77 1018.6
20210925235849 72 28 0.0 0.0 0.00 0.00 0.00 77 1018.6
20210925235345 73 28 0.0 0.0 0.00 0.00 0.00 76 1018.7
20210925234840 73 28 0.0 0.0 0.00 0.00 0.00 74 1018.6
20210925234337 74 28 0.0 0.0 0.00 0.00 0.00 74 1018.6
20210925233835 74 28 0.0 0.0 0.00 0.00 0.00 73 1018.6
20210925233350 75 28 0.0 0.0 0.00 0.00 0.00 73 1018.6
20210925232846 75 28 0.0 0.0 0.00 0.00 0.00 72 1018.6
20210925232343 76 28 0.0 0.0 0.00 0.00 0.00 71 1018.6
20210925231845 76 28 0.0 0.0 0.00 0.00 0.00 71 1018.5
20210925231340 77 28 0.0 0.0 0.00 0.00 0.00 70 1018.5
20210925230834 77 28 0.0 0.0 0.00 0.00 0.00 68 1018.6
20210925230350 78 28 0.0 0.0 0.00 0.00 0.00 67 1018.7
20210925225844 78 28 0.0 0.0 0.00 0.00 0.00 65 1018.6
20210925225341 78 28 0.0 1.0 0.00 0.00 0.00 64 1018.6
20210925224837 79 28 0.0 1.0 0.00 0.00 0.00 63 1018.5
20210925224333 79 29 0.0 0.0 0.00 0.00 0.00 62 1018.6
20210925223848 79 29 0.0 0.0 0.00 0.00 0.00 61 1018.5
20210925223342 80 29 0.0 2.0 0.00 0.00 0.00 61 1018.5
20210925222836 80 29 0.0 3.0 0.00 0.00 0.00 61 1018.5
20210925222334 80 29 0.0 3.0 0.00 0.00 0.00 61 1018.4
20210925221833 80 27 0.0 3.0 0.00 0.00 0.00 61 1018.4
20210925221332 80 37 0.0 3.0 0.00 0.00 0.00 60 1018.4
20210925220849 80 5 0.0 3.0 0.00 0.00 0.00 60 1018.4
20210925220346 81 355 0.0 0.0 0.00 0.00 0.00 59 1018.4
20210925215846 81 355 0.0 2.0 0.00 0.00 0.00 58 1018.3
20210925215344 80 355 0.0 2.0 0.00 0.00 0.00 58 1018.3
20210925214840 80 61 0.0 0.0 0.00 0.00 0.00 58 1018.3
20210925214335 81 61 0.0 0.0 0.00 0.00 0.00 58 1018.3
20210925213850 81 61 0.0 0.0 0.00 0.00 0.00 58 1018.3
20210925213348 81 61 0.0 1.0 0.00 0.00 0.00 58 1018.3
20210925212848 82 61 0.0 6.0 0.00 0.00 0.00 57 1018.3
20210925212346 82 48 0.0 4.0 0.00 0.00 0.00 55 1018.4
20210925211845 82 34 0.0 1.0 0.00 0.00 0.00 55 1018.4
20210925211343 82 24 0.0 4.0 0.00 0.00 0.00 55 1018.4
20210925210843 83 15 1.0 4.0 0.00 0.00 0.00 55 1018.3
20210925210344 83 333 0.0 0.0 0.00 0.00 0.00 56 1018.3
20210925205841 83 329 0.0 4.0 0.00 0.00 0.00 56 1018.4
20210925205336 82 329 0.0 4.0 0.00 0.00 0.00 55 1018.4
20210925204835 82 10 0.0 0.0 0.00 0.00 0.00 56 1018.4
20210925204350 82 10 0.0 0.0 0.00 0.00 0.00 55 1018.4
20210925203846 82 10 0.0 2.0 0.00 0.00 0.00 55 1018.4
20210925203341 82 5 0.0 4.0 0.00 0.00 0.00 55 1018.5
20210925202837 82 329 0.0 4.0 0.00 0.00 0.00 58 1018.5
20210925202332 82 338 0.0 2.0 0.00 0.00 0.00 58 1018.6
20210925201848 82 308 0.0 2.0 0.00 0.00 0.00 60 1018.6
20210925201344 82 306 0.0 0.0 0.00 0.00 0.00 59 1018.7
20210925200841 83 303 0.0 0.0 0.00 0.00 0.00 61 1018.7
20210925200339 82 298 0.0 0.0 0.00 0.00 0.00 56 1018.7
20210925195834 82 298 0.0 3.0 0.00 0.00 0.00 57 1018.7
20210925195350 81 302 1.0 3.0 0.00 0.00 0.00 56 1018.8
20210925194844 80 348 0.0 1.0 0.00 0.00 0.00 60 1018.9
20210925194344 80 348 0.0 1.0 0.00 0.00 0.00 61 1018.9
20210925193842 80 355 0.0 0.0 0.00 0.00 0.00 63 1019.0
20210925193339 80 355 0.0 2.0 0.00 0.00 0.00 61 1019.1
20210925192838 81 355 0.0 4.0 0.00 0.00 0.00 61 1019.2
20210925192335 82 26 1.0 4.0 0.00 0.00 0.00 60 1019.2
20210925191831 83 276 0.0 3.0 0.00 0.00 0.00 59 1019.2
20210925191349 83 215 0.0 0.0 0.00 0.00 0.00 58 1019.2
20210925190844 83 213 0.0 0.0 0.00 0.00 0.00 57 1019.2
20210925190340 82 293 0.0 1.0 0.00 0.00 0.00 59 1019.2
20210925185836 81 293 0.0 1.0 0.00 0.00 0.00 61 1019.3
20210925185331 81 333 0.0 3.0 0.00 0.00 0.00 62 1019.2
20210925184845 81 333 1.0 3.0 0.00 0.00 0.00 61 1019.4
20210925184345 81 5 0.0 1.0 0.00 0.00 0.00 63 1019.4
20210925183843 81 5 0.0 2.0 0.00 0.00 0.00 63 1019.5
20210925183341 81 360 0.0 5.0 0.00 0.00 0.00 61 1019.5
20210925182837 81 24 1.0 5.0 0.00 0.00 0.00 61 1019.6
20210925182333 81 200 0.0 1.0 0.00 0.00 0.00 59 1019.5
20210925181849 82 191 0.0 2.0 0.00 0.00 0.00 58 1019.6
20210925181343 82 191 0.0 2.0 0.00 0.00 0.00 60 1019.6
20210925180844 82 184 0.0 1.0 0.00 0.00 0.00 62 1019.6
20210925180342 81 183 0.0 1.0 0.00 0.00 0.00 62 1019.7
20210925175838 81 185 0.0 1.0 0.00 0.00 0.00 62 1019.8
20210925175334 81 211 0.0 3.0 0.00 0.00 0.00 62 1019.8
20210925174833 80 236 0.0 3.0 0.00 0.00 0.00 64 1019.9
20210925174350 80 234 0.0 2.0 0.00 0.00 0.00 65 1020.0
20210925173846 80 286 0.0 2.0 0.00 0.00 0.00 68 1020.1
20210925173341 79 355 0.0 2.0 0.00 0.00 0.00 66 1020.2
20210925172837 79 11 0.0 1.0 0.00 0.00 0.00 67 1020.3
20210925172331 79 20 0.0 0.0 0.00 0.00 0.00 66 1020.3
20210925171830 79 20 0.0 0.0 0.00 0.00 0.00 68 1020.4
20210925171348 79 21 0.0 0.0 0.00 0.00 0.00 65 1020.4
20210925170846 79 21 0.0 0.0 0.00 0.00 0.00 68 1020.4
20210925170342 79 18 0.0 0.0 0.00 0.00 0.00 66 1020.5
20210925165840 79 18 0.0 3.0 0.00 0.00 0.00 68 1020.5
20210925165340 79 18 0.0 3.0 0.00 0.00 0.00 69 1020.6
20210925164838 79 179 0.0 3.0 0.00 0.00 0.00 66 1020.7
20210925164336 79 28 0.0 5.0 0.00 0.00 0.00 65 1020.9
20210925163835 79 28 0.0 5.0 0.00 0.00 0.00 72 1020.9
20210925163335 78 18 0.0 5.0 0.00 0.00 0.00 73 1020.9
20210925162835 78 5 1.0 5.0 0.00 0.00 0.00 73 1020.9
20210925162334 78 282 0.0 3.0 0.00 0.00 0.00 75 1020.9
20210925161849 77 284 0.0 3.0 0.00 0.00 0.00 77 1021.0
20210925161343 77 54 0.0 3.0 0.00 0.00 0.00 75 1021.0
20210925160840 77 69 0.0 1.0 0.00 0.00 0.00 77 1021.0
20210925160335 77 68 0.0 0.0 0.00 0.00 0.00 78 1021.1
20210925155851 76 68 0.0 1.0 0.00 0.00 0.00 75 1021.2
20210925155346 76 68 0.0 1.0 0.00 0.00 0.00 80 1021.2
20210925154843 76 69 0.0 0.0 0.00 0.00 0.00 79 1021.2
20210925154341 76 51 0.0 1.0 0.00 0.00 0.00 78 1021.2
20210925153843 76 51 0.0 4.0 0.00 0.00 0.00 80 1021.2
20210925153343 76 54 0.0 4.0 0.00 0.00 0.00 82 1021.2
20210925152841 75 54 0.0 1.0 0.00 0.00 0.00 80 1021.3
20210925152335 75 46 0.0 0.0 0.00 0.00 0.00 81 1021.3
20210925151833 74 46 0.0 0.0 0.00 0.00 0.00 83 1021.4
20210925151351 74 46 0.0 1.0 0.00 0.00 0.00 83 1021.5
20210925150847 73 46 0.0 1.0 0.00 0.00 0.00 83 1021.5
20210925150344 73 44 0.0 0.0 0.00 0.00 0.00 84 1021.5
20210925145841 72 32 0.0 0.0 0.00 0.00 0.00 85 1021.5
20210925145337 72 32 0.0 0.0 0.00 0.00 0.00 85 1021.5
20210925144833 71 32 0.0 0.0 0.00 0.00 0.00 85 1021.5
20210925144331 71 32 0.0 0.0 0.00 0.00 0.00 85 1021.5
20210925143832 71 32 0.0 0.0 0.00 0.00 0.00 86 1021.5
20210925143330 71 32 0.0 0.0 0.00 0.00 0.00 86 1021.6
20210925142833 71 32 0.0 0.0 0.00 0.00 0.00 85 1021.4
20210925142350 71 32 0.0 0.0 0.00 0.00 0.00 86 1021.5
20210925141847 71 32 0.0 0.0 0.00 0.00 0.00 86 1021.4
20210925141343 70 32 0.0 1.0 0.00 0.00 0.00 87 1021.3
20210925140841 70 32 0.0 0.0 0.00 0.00 0.00 88 1021.2
20210925140336 69 32 0.0 0.0 0.00 0.00 0.00 88 1021.3
20210925135831 69 32 0.0 0.0 0.00 0.00 0.00 89 1021.3
20210925135329 69 32 0.0 0.0 0.00 0.00 0.00 91 1021.2
20210925134830 68 32 0.0 0.0 0.00 0.00 0.00 91 1021.1
20210925134330 67 32 0.0 1.0 0.00 0.00 0.00 92 1021.2
20210925133848 67 32 0.0 1.0 0.00 0.00 0.00 93 1021.1
20210925133346 66 32 0.0 0.0 0.00 0.00 0.00 93 1021.1
20210925132844 65 32 0.0 0.0 0.00 0.00 0.00 94 1021.0
20210925132341 64 32 0.0 0.0 0.00 0.00 0.00 94 1021.0
20210925131837 63 32 0.0 0.0 0.00 0.00 0.00 95 1020.9
20210925131336 62 32 0.0 0.0 0.00 0.00 0.00 95 1020.9
20210925130831 61 32 0.0 0.0 0.00 0.00 0.00 94 1020.9
20210925130330 61 32 0.0 0.0 0.00 0.00 0.00 94 1020.8
20210925125829 61 32 0.0 0.0 0.00 0.00 0.00 94 1020.9
20210925125329 60 32 0.0 0.0 0.00 0.00 0.00 94 1021.0
20210925124830 60 32 0.0 0.0 0.00 0.00 0.00 94 1021.0
20210925124347 60 32 0.0 0.0 0.00 0.00 0.00 95 1020.9
20210925123843 59 32 0.0 1.0 0.00 0.00 0.00 94 1020.8
20210925123338 59 32 0.0 1.0 0.00 0.00 0.00 95 1020.8
20210925122833 59 32 0.0 0.0 0.00 0.00 0.00 94 1020.7
20210925122332 58 32 0.0 0.0 0.00 0.00 0.00 94 1020.7
20210925121832 58 32 0.0 0.0 0.00 0.00 0.00 94 1020.7
20210925121330 58 32 0.0 0.0 0.00 0.00 0.00 94 1020.7
20210925120847 58 32 0.0 0.0 0.00 0.00 0.00 94 1020.6
20210925120343 58 32 0.0 0.0 0.00 0.00 0.00 94 1020.6
20210925115842 58 32 0.0 0.0 0.00 0.00 0.00 94 1020.7
20210925115337 58 32 0.0 0.0 0.00 0.00 0.00 94 1020.6
20210925114835 58 32 0.0 0.0 0.00 0.00 0.00 94 1020.6
20210925114332 58 32 0.0 0.0 0.00 0.00 0.00 94 1020.5
20210925113830 58 32 0.0 0.0 0.00 0.00 0.00 94 1020.4
20210925113348 58 32 0.0 0.0 0.00 0.00 0.00 94 1020.4
20210925112843 58 32 0.0 0.0 0.00 0.00 0.00 94 1020.3
20210925112338 58 32 0.0 0.0 0.00 0.00 0.00 94 1020.4
20210925111833 58 32 0.0 0.0 0.00 0.00 0.00 94 1020.2
20210925111349 58 32 0.0 0.0 0.00 0.00 0.00 94 1020.3
20210925110844 58 32 0.0 0.0 0.00 0.00 0.00 94 1020.2
20210925110340 58 32 0.0 0.0 0.00 0.00 0.00 94 1020.3
20210925105835 58 32 0.0 0.0 0.00 0.00 0.00 94 1020.2
20210925105330 58 32 0.0 0.0 0.00 0.00 0.00 94 1020.2
20210925104829 58 32 0.0 0.0 0.00 0.00 0.00 94 1020.2
20210925104331 58 32 0.0 0.0 0.00 0.00 0.00 94 1020.1
20210925103847 58 32 0.0 0.0 0.00 0.00 0.00 94 1020.0
20210925103343 58 32 0.0 0.0 0.00 0.00 0.00 94 1019.9
20210925102840 58 32 0.0 0.0 0.00 0.00 0.00 94 1019.8
20210925102335 58 32 0.0 0.0 0.00 0.00 0.00 94 1019.8
20210925101850 58 32 0.0 0.0 0.00 0.00 0.00 94 1019.8
20210925101347 58 32 0.0 0.0 0.00 0.00 0.00 94 1019.7
20210925100846 58 32 0.0 0.0 0.00 0.00 0.00 94 1019.5
20210925100344 58 32 0.0 0.0 0.00 0.00 0.00 93 1019.5
20210925095839 58 32 0.0 0.0 0.00 0.00 0.00 93 1019.5
20210925095336 58 32 0.0 0.0 0.00 0.00 0.00 93 1019.5
20210925094836 58 32 0.0 0.0 0.00 0.00 0.00 93 1019.5
20210925094336 58 32 0.0 0.0 0.00 0.00 0.00 94 1019.5
20210925093837 58 32 0.0 0.0 0.00 0.00 0.00 94 1019.5
20210925093336 58 32 0.0 0.0 0.00 0.00 0.00 94 1019.4
20210925092838 58 32 0.0 0.0 0.00 0.00 0.00 93 1019.4
20210925092336 58 32 0.0 0.0 0.00 0.00 0.00 93 1019.4
20210925091836 58 32 0.0 0.0 0.00 0.00 0.00 93 1019.4
20210925091334 58 32 0.0 0.0 0.00 0.00 0.00 93 1019.3
20210925090832 58 32 0.0 0.0 0.00 0.00 0.00 93 1019.3
20210925090347 58 32 0.0 0.0 0.00 0.00 0.00 93 1019.3
20210925085842 58 32 0.0 0.0 0.00 0.00 0.00 93 1019.3
20210925085337 58 32 0.0 0.0 0.00 0.00 0.00 93 1019.4
20210925084834 58 32 0.0 0.0 0.00 0.00 0.00 93 1019.3
20210925084331 58 32 0.0 0.0 0.00 0.00 0.00 93 1019.3
20210925083847 59 32 0.0 0.0 0.00 0.00 0.00 93 1019.4
20210925083342 59 32 0.0 0.0 0.00 0.00 0.00 93 1019.4
20210925082838 59 32 0.0 0.0 0.00 0.00 0.00 93 1019.3
20210925082336 59 32 0.0 0.0 0.00 0.00 0.00 93 1019.3
20210925081833 59 32 0.0 0.0 0.00 0.00 0.00 93 1019.3
20210925081337 59 32 0.0 0.0 0.00 0.00 0.00 93 1019.2
20210925080837 59 32 0.0 0.0 0.00 0.00 0.00 93 1019.2
20210925080336 59 32 0.0 0.0 0.00 0.00 0.00 93 1019.2
20210925075835 59 32 0.0 0.0 0.00 0.00 0.00 93 1019.3
20210925075333 59 32 0.0 0.0 0.00 0.00 0.00 93 1019.3
20210925074829 59 32 0.0 0.0 0.00 0.00 0.00 93 1019.2
20210925074347 59 32 0.0 0.0 0.00 0.00 0.00 93 1019.2
20210925073845 59 32 0.0 0.0 0.00 0.00 0.00 93 1019.2
20210925073343 59 32 0.0 0.0 0.00 0.00 0.00 93 1019.2
20210925072841 59 32 0.0 0.0 0.00 0.00 0.00 93 1019.2
20210925072339 59 32 0.0 0.0 0.00 0.00 0.00 93 1019.2
20210925071836 59 32 0.0 0.0 0.00 0.00 0.00 93 1019.2
20210925071333 59 32 0.0 0.0 0.00 0.00 0.00 93 1019.2
20210925070830 59 32 0.0 0.0 0.00 0.00 0.00 93 1019.2
20210925070334 59 32 0.0 0.0 0.00 0.00 0.00 93 1019.3
20210925065835 59 32 0.0 0.0 0.00 0.00 0.00 92 1019.3
20210925065333 59 32 0.0 0.0 0.00 0.00 0.00 92 1019.3
20210925064833 59 32 0.0 0.0 0.00 0.00 0.00 92 1019.3
20210925064334 59 32 0.0 0.0 0.00 0.00 0.00 92 1019.4
20210925063834 59 32 0.0 0.0 0.00 0.00 0.00 92 1019.4
20210925063334 59 32 0.0 0.0 0.00 0.00 0.00 92 1019.2
20210925062835 59 32 0.0 0.0 0.00 0.00 0.00 92 1019.3
20210925062333 59 32 0.0 0.0 0.00 0.00 0.00 92 1019.3
20210925061848 59 32 0.0 0.0 0.00 0.00 0.00 92 1019.4
20210925061344 60 32 0.0 0.0 0.00 0.00 0.00 92 1019.4
20210925060839 60 32 0.0 0.0 0.00 0.00 0.00 92 1019.4
20210925060334 60 32 0.0 0.0 0.00 0.00 0.00 91 1019.4
20210925055848 60 32 0.0 0.0 0.00 0.00 0.00 91 1019.4
20210925055331 60 32 0.0 0.0 0.00 0.00 0.00 91 1019.3
20210925054849 60 32 0.0 0.0 0.00 0.00 0.00 91 1019.4
20210925054344 60 32 0.0 0.0 0.00 0.00 0.00 91 1019.4
20210925053840 61 32 0.0 0.0 0.00 0.00 0.00 91 1019.4
20210925053335 61 32 0.0 0.0 0.00 0.00 0.00 91 1019.4
20210925052849 61 32 0.0 0.0 0.00 0.00 0.00 91 1019.5
20210925052343 61 32 0.0 0.0 0.00 0.00 0.00 91 1019.5
20210925051843 61 32 0.0 0.0 0.00 0.00 0.00 91 1019.6
20210925051341 61 32 0.0 0.0 0.00 0.00 0.00 91 1019.5
20210925050838 61 32 0.0 0.0 0.00 0.00 0.00 91 1019.5
20210925050336 61 32 0.0 0.0 0.00 0.00 0.00 91 1019.4
20210925045833 61 32 0.0 0.0 0.00 0.00 0.00 91 1019.5
20210925045331 61 32 0.0 0.0 0.00 0.00 0.00 91 1019.5
20210925044847 61 32 0.0 0.0 0.00 0.00 0.00 90 1019.5
20210925044342 61 32 0.0 0.0 0.00 0.00 0.00 90 1019.6
20210925043837 61 32 0.0 0.0 0.00 0.00 0.00 90 1019.7
20210925043339 61 32 0.0 0.0 0.00 0.00 0.00 90 1019.7
20210925042837 61 32 0.0 0.0 0.00 0.00 0.00 90 1019.8
20210925042332 61 32 0.0 0.0 0.00 0.00 0.00 90 1019.7
20210925041849 61 32 0.0 0.0 0.00 0.00 0.00 89 1019.8
20210925041342 61 32 0.0 0.0 0.00 0.00 0.00 89 1019.7
20210925040841 62 32 0.0 0.0 0.00 0.00 0.00 89 1019.8
20210925040341 62 32 0.0 0.0 0.00 0.00 0.00 89 1019.8
20210925035840 62 32 0.0 0.0 0.00 0.00 0.00 89 1019.8
20210925035339 62 32 0.0 0.0 0.00 0.00 0.00 89 1019.9
20210925034839 62 32 0.0 0.0 0.00 0.00 0.00 89 1019.9
20210925034336 62 32 0.0 0.0 0.00 0.00 0.00 89 1019.8
20210925033834 62 32 0.0 0.0 0.00 0.00 0.00 89 1019.8
20210925033348 62 32 0.0 0.0 0.00 0.00 0.00 89 1019.8
20210925032843 62 32 0.0 0.0 0.00 0.00 0.00 89 1019.8
20210925032339 62 32 0.0 0.0 0.00 0.00 0.00 88 1019.8
20210925031838 62 32 0.0 0.0 0.00 0.00 0.00 88 1019.9
20210925031334 62 32 0.0 0.0 0.00 0.00 0.00 88 1019.8
20210925030833 62 32 0.0 0.0 0.00 0.00 0.00 88 1019.9
20210925030331 62 32 0.0 0.0 0.00 0.00 0.00 88 1019.8
20210925025847 62 32 0.0 0.0 0.00 0.00 0.00 88 1019.8
20210925025342 62 32 0.0 0.0 0.00 0.00 0.00 88 1019.8
20210925024839 62 32 0.0 0.0 0.00 0.00 0.00 88 1019.7
20210925024335 62 32 0.0 0.0 0.00 0.00 0.00 87 1019.7
20210925023833 62 32 0.0 0.0 0.00 0.00 0.00 87 1019.8
20210925023329 63 32 0.0 0.0 0.00 0.00 0.00 87 1019.8
20210925022830 63 32 0.0 0.0 0.00 0.00 0.00 86 1019.6
20210925022349 63 32 0.0 0.0 0.00 0.00 0.00 87 1019.6
20210925021846 63 32 0.0 0.0 0.00 0.00 0.00 87 1019.5
20210925021347 63 32 0.0 0.0 0.00 0.00 0.00 86 1019.5
20210925020844 63 32 0.0 0.0 0.00 0.00 0.00 86 1019.4
20210925020345 63 32 0.0 0.0 0.00 0.00 0.00 86 1019.4
20210925015842 63 32 0.0 0.0 0.00 0.00 0.00 86 1019.4